ROMMA est une association bénévole à but non lucratif. Votre soutien est indispensable : ADHERER à ROMMA ou FAIRE un DON

Pinsot - (38, Isère)

Vallée du Haut Bréda (750 m)   Longitude: 06° 06' E   Latitude: 45° 21' N Station partenaire n°101
 

Détail journalier du     <<     >>

Température Humidité Pression Vent Dir Rafale Dir. rafale Ensol.
Heure (°C) (%) (hPa) (km/h) (km/h) (min)
01:00 -3.8901011000
02:00 -3.9901012010ENE0
03:00 -4.19010121NNE10N0
04:00 -4.28910121NE11NNE0
05:00 -4.388101206NNE0
06:00 -5.489101206ENE0
07:00 -6.39110131ENE11E0
08:00 -6.58810141SSO8SSO0
09:00 -6.48710143SO11SSO0
10:00 -6.18510153SSO11SSO0
11:00 -6.98710152SSO11SSO0
12:00 -3.981101508S5
13:00 -2.37810140060
14:00 -1.97810143N13NNO60
15:00 -2.38010145N18N39
16:00 -2.48110151N15NNE18
17:00 -3.287101508ENE0
18:00 -4.389101606E0
19:00 -4.690101706SSO0
20:00 -5.992101805SSO0
21:00 -6.39110191SSO10SSO0
22:00 -6.99210191SSO10S0
23:00 -6.99110193SSO13S0
minuit -6.99210203SSO10SSO0

Graphique du 25-01-2019

 

Serveur OMMA